Wind_Speed
30 29 29 28 28 28 28 28 28 28 28 29 29 29 29 30 32 33 34 35 37 37 37 38 39 40 40 40 41 42 42 42 42 42 42 42 42 41 41 42 41 41 41 40
31 30 28 28 28 29 29 29 28 28 29 30 30 29 29 30 31 32 33 34 35 36 37 37 38 39 40 40 41 42 43 43 42 42 42 42 42 42 42 42 43 43 42 41
31 30 28 28 29 29 29 28 29 29 29 30 31 30 29 30 30 30 31 32 34 36 37 37 38 38 39 40 41 42 43 42 42 41 42 43 43 42 43 43 43 43 43 42
31 30 30 29 29 29 29 29 29 29 30 30 30 31 29 29 30 30 30 31 32 34 35 36 37 37 38 38 40 41 41 41 42 42 42 44 43 43 43 44 43 43 43 43
31 30 30 30 29 29 29 29 30 30 30 31 31 32 30 29 29 29 30 31 32 33 34 35 36 36 37 38 39 40 40 41 41 41 41 43 43 43 43 44 44 43 43 43
30 30 30 30 30 29 29 29 30 29 30 31 30 31 31 29 29 29 29 30 31 32 33 34 35 36 37 37 38 39 40 41 41 41 42 43 43 43 44 45 45 44 44 43
28 28 29 30 30 29 29 29 29 29 30 30 29 30 31 29 29 29 29 29 30 31 32 33 34 35 36 37 37 38 39 40 41 41 41 42 42 42 43 44 45 45 44 44
28 27 28 28 29 29 29 29 29 30 31 31 29 29 29 29 28 29 29 29 29 30 31 32 33 34 35 36 36 37 39 39 40 41 42 41 41 42 42 43 45 45 44 44
27 27 26 27 27 28 29 29 29 31 31 31 31 30 29 29 29 29 29 29 29 30 31 32 32 33 34 34 35 36 37 38 38 40 41 41 42 42 41 41 44 45 45 45
26 27 27 27 27 28 28 28 28 29 31 31 31 30 29 28 29 29 29 29 29 30 31 31 31 32 32 33 33 34 35 36 37 37 38 40 41 42 42 42 43 44 46 46
26 27 28 27 27 27 27 27 27 29 30 30 31 30 28 28 28 29 29 29 29 30 30 30 30 30 31 32 32 32 33 35 35 36 37 38 39 41 43 43 43 43 44 45
26 27 27 27 27 27 27 27 27 27 28 29 30 30 28 28 28 29 29 29 29 29 29 29 29 29 30 30 30 31 32 33 34 35 36 37 38 40 42 42 42 43 44 44
26 28 28 28 28 28 27 26 27 27 28 29 29 28 28 28 28 29 29 29 29 29 28 29 30 30 30 30 30 30 30 31 33 34 35 36 37 38 39 41 41 43 44 45
28 28 28 29 29 28 28 27 27 28 28 29 29 27 27 27 28 28 28 28 28 28 28 28 29 30 30 30 30 30 30 31 32 33 34 34 35 36 37 39 41 42 43 43
26 27 28 28 29 29 29 28 28 28 29 29 28 28 27 28 28 28 27 27 28 27 27 28 28 29 30 30 31 31 31 31 31 32 33 33 34 34 35 37 38 40 42 42
27 27 28 27 28 29 29 29 29 28 29 29 29 28 27 28 29 28 28 28 28 27 27 28 29 29 30 30 31 31 31 31 31 32 32 33 33 33 35 35 36 38 40 41
27 28 29 29 28 29 29 28 28 28 28 28 28 28 28 28 28 28 28 27 27 28 28 28 28 29 29 30 31 31 31 31 31 31 32 33 33 34 34 34 35 36 37 39
28 29 30 30 30 30 28 28 28 28 27 27 27 27 27 28 29 29 28 28 28 28 28 28 28 29 29 29 29 30 30 31 31 31 31 32 32 32 33 33 34 35 36 38
29 29 29 29 30 30 28 27 27 27 27 27 27 27 27 28 29 29 29 29 29 29 29 29 29 29 29 29 29 29 29 30 31 31 32 32 32 31 31 32 33 35 36 37
29 29 29 30 30 30 27 26 26 27 28 27 28 28 28 29 29 29 29 30 30 30 30 30 30 30 30 29 29 29 29 29 30 30 31 32 32 32 32 32 33 33 35 36
29 29 30 29 30 29 27 27 27 28 28 28 29 30 30 30 30 29 30 30 30 30 30 30 30 30 30 30 29 30 29 29 30 30 31 32 32 32 32 32 33 34 35 36
28 29 29 29 29 28 27 28 29 29 29 29 29 29 30 30 30 30 30 30 30 30 30 30 30 30 31 31 30 30 30 29 30 31 33 33 34 34 34 33 33 33 34 34
27 27 28 28 28 28 28 28 27 28 28 28 28 29 30 30 30 30 31 31 31 30 29 29 29 30 30 31 31 30 30 30 31 32 33 34 34 35 34 34 34 33 33 34
27 27 28 29 29 29 28 28 28 28 28 28 28 29 30 30 31 31 31 31 30 30 29 29 29 30 30 31 31 31 31 32 32 32 33 33 34 35 34 33 33 33 33 33
27 28 29 29 28 28 28 29 30 30 30 29 30 30 31 31 31 31 30 30 30 30 29 29 30 30 31 31 31 32 32 32 32 32 32 32 33 34 33 33 32 32 32 33
27 28 29 28 28 28 28 29 31 31 32 32 31 31 31 32 31 31 31 31 30 30 30 30 30 30 31 31 32 32 32 32 32 31 31 31 31 32 32 32 31 32 32 32
Wind_Direction
268 268 267 266 266 266 268 268 268 267 265 266 265 266 264 263 262 260 260 259 257 257 256 256 256 255 254 253 252 252 253 254 255 254 255 256 256 257 257 257 256 256 256 256
266 266 266 265 265 267 268 268 269 268 267 267 267 267 267 265 264 261 261 260 259 258 257 258 257 257 256 255 254 253 253 253 255 255 254 256 256 257 257 257 255 255 256 256
265 265 263 263 265 266 268 269 270 270 270 269 269 268 267 265 265 264 263 262 260 259 258 258 258 258 258 257 255 254 254 254 254 256 254 255 256 256 257 256 255 255 255 255
264 263 263 264 265 266 267 269 270 271 271 269 268 269 267 268 267 266 264 263 263 261 260 259 260 260 259 258 256 254 254 254 254 255 257 256 256 255 256 256 255 255 254 254
264 263 262 264 265 266 268 269 270 271 270 270 269 269 268 269 269 268 266 265 265 264 263 262 262 261 260 259 257 255 254 255 255 256 257 256 255 255 255 255 256 255 254 254
264 263 261 263 263 264 266 267 268 269 269 269 269 269 269 268 270 270 268 266 266 266 266 264 263 262 260 260 259 257 255 255 256 256 256 255 256 256 255 255 255 254 254 254
260 261 261 262 261 261 263 265 267 268 268 270 270 269 269 269 269 270 269 268 267 267 266 266 265 264 262 261 261 259 257 256 256 256 255 255 255 256 256 255 255 253 253 253
261 260 261 261 261 262 264 265 267 269 270 270 270 269 269 269 269 269 270 269 268 267 267 266 265 264 263 262 262 261 258 257 257 257 256 255 254 256 256 255 254 253 252 252
264 262 262 261 262 262 263 265 266 268 269 271 270 270 270 270 269 270 270 271 271 270 268 267 266 265 264 263 263 262 259 258 258 259 258 256 255 256 256 255 253 252 251 252
265 264 262 263 263 261 263 265 266 266 269 271 271 270 272 271 270 270 271 272 272 271 269 268 267 266 266 265 264 263 261 259 259 260 259 258 257 258 258 256 254 252 252 252
263 265 263 262 262 263 262 262 264 266 268 270 272 273 273 273 272 271 271 272 272 270 268 267 267 267 267 266 265 265 264 262 261 261 260 259 259 259 259 257 255 253 253 252
262 263 264 264 263 264 264 263 264 267 269 270 272 275 275 275 274 271 271 272 272 270 268 268 267 267 267 266 266 266 265 263 261 260 261 260 260 260 259 257 255 254 253 252
264 264 264 263 262 262 263 264 264 265 267 269 272 275 277 278 277 274 272 272 273 272 271 269 268 267 267 266 267 267 266 264 262 262 262 262 262 262 260 259 256 254 253 252
265 264 263 263 263 262 262 262 264 266 268 270 272 276 278 280 279 277 276 276 276 275 273 271 270 269 268 268 268 268 267 266 265 263 263 264 262 262 262 261 259 255 253 252
264 263 262 263 264 262 262 261 264 266 269 272 273 274 276 278 277 277 277 276 276 275 274 272 272 272 270 269 270 270 270 270 266 263 263 263 263 263 263 262 259 256 255 253
266 266 264 262 263 262 262 261 262 266 268 270 272 273 274 277 277 277 277 276 275 274 273 273 274 274 273 271 270 269 270 271 268 265 264 263 262 261 263 262 259 257 256 255
268 269 267 264 263 262 261 261 264 266 268 270 272 274 274 276 277 277 276 275 275 274 274 275 275 275 274 272 271 269 271 271 269 267 265 264 263 261 262 262 260 258 257 257
266 269 269 267 264 263 264 264 265 267 267 269 272 274 274 275 277 278 277 276 276 276 276 276 276 276 275 274 273 271 270 270 269 267 265 264 263 262 260 258 257 257 256 256
265 266 267 267 265 264 264 265 266 266 266 268 271 272 274 275 276 277 278 278 277 278 278 277 276 276 275 274 274 272 270 270 270 268 265 263 263 263 261 257 256 256 256 256
265 264 265 264 264 264 267 266 265 267 269 270 273 274 276 277 277 277 278 278 278 278 278 277 276 277 276 275 274 272 272 270 269 268 266 264 264 265 263 260 258 258 257 256
265 264 263 263 263 264 267 268 268 269 273 274 274 275 277 278 279 279 279 279 279 279 279 278 276 276 275 274 273 273 272 271 271 270 267 265 264 265 263 260 260 259 258 257
265 265 262 261 263 265 266 267 267 269 271 273 274 275 276 277 278 279 279 279 280 280 279 278 276 275 274 274 273 273 272 272 272 271 269 266 265 264 261 259 260 260 259 257
266 266 263 262 264 266 267 268 269 270 272 273 275 276 276 276 277 278 278 279 279 279 278 277 277 276 275 274 273 273 273 272 273 273 270 267 266 264 261 259 258 258 257 257
266 266 266 266 266 267 268 269 271 272 273 273 275 276 277 278 278 277 277 278 277 277 278 278 277 276 275 274 274 273 274 273 273 274 272 267 263 261 260 259 257 256 254 254
268 269 269 268 269 270 270 270 271 273 273 274 275 276 278 279 279 277 277 277 277 278 278 278 278 277 275 274 274 274 275 274 273 273 272 269 264 260 258 256 255 255 253 253
268 269 269 270 272 273 272 271 272 273 273 274 275 276 277 279 279 277 276 276 277 277 278 278 278 278 277 276 275 275 275 274 273 274 272 268 264 260 257 254 253 254 253 253
Height
5702 5702 5702 5703 5704 5704 5703 5703 5704 5704 5704 5704 5704 5705 5705 5705 5705 5705 5706 5707 5708 5709 5710 5711 5713 5715 5716 5718 5720 5722 5724 5725 5726 5728 5730 5731 5733 5735 5736 5737 5739 5740 5742 5743
5693 5694 5696 5695 5696 5696 5696 5696 5696 5696 5696 5696 5696 5697 5697 5696 5697 5697 5697 5698 5699 5700 5701 5702 5703 5705 5706 5707 5709 5711 5712 5714 5716 5717 5719 5720 5722 5724 5725 5727 5728 5730 5731 5733
5685 5687 5687 5687 5688 5688 5688 5689 5689 5688 5688 5687 5688 5689 5689 5689 5688 5689 5689 5689 5690 5691 5692 5693 5694 5694 5696 5697 5698 5700 5701 5703 5705 5706 5708 5709 5711 5713 5714 5716 5718 5719 5721 5723
5676 5678 5678 5679 5679 5680 5680 5681 5681 5680 5680 5680 5680 5679 5682 5681 5680 5681 5681 5681 5681 5682 5683 5683 5684 5685 5686 5686 5687 5689 5690 5692 5693 5695 5697 5698 5699 5701 5703 5705 5707 5708 5710 5712
5667 5669 5670 5671 5672 5672 5672 5673 5672 5672 5671 5671 5672 5671 5673 5673 5672 5672 5672 5672 5672 5673 5673 5674 5674 5675 5676 5676 5677 5678 5679 5681 5682 5683 5685 5686 5688 5690 5692 5694 5695 5697 5699 5701
5659 5660 5661 5663 5664 5664 5664 5664 5664 5663 5663 5663 5664 5663 5664 5665 5665 5664 5665 5664 5664 5664 5664 5664 5665 5665 5665 5666 5667 5667 5668 5669 5670 5671 5673 5675 5676 5678 5681 5682 5684 5686 5689 5691
5650 5652 5653 5654 5655 5655 5656 5656 5656 5654 5654 5655 5656 5654 5656 5656 5656 5656 5656 5656 5656 5655 5655 5655 5655 5655 5655 5656 5656 5657 5657 5658 5659 5660 5661 5662 5664 5667 5669 5671 5673 5676 5678 5681
5642 5643 5645 5646 5647 5647 5648 5649 5649 5648 5647 5647 5646 5646 5649 5648 5648 5648 5647 5647 5647 5647 5647 5646 5646 5645 5645 5646 5646 5646 5646 5647 5648 5649 5650 5651 5653 5655 5658 5660 5662 5665 5668 5670
5634 5636 5637 5638 5638 5639 5639 5640 5641 5639 5638 5638 5638 5639 5640 5639 5639 5639 5639 5639 5638 5638 5638 5637 5637 5636 5636 5636 5636 5636 5636 5637 5637 5638 5639 5641 5642 5644 5646 5648 5651 5654 5656 5659
5626 5627 5628 5629 5630 5630 5632 5632 5632 5631 5630 5629 5630 5630 5632 5631 5631 5631 5630 5630 5630 5629 5629 5628 5628 5627 5627 5626 5626 5626 5626 5627 5627 5628 5629 5630 5631 5633 5635 5637 5639 5643 5646 5648
5618 5619 5620 5621 5622 5623 5624 5624 5623 5623 5623 5622 5621 5625 5624 5623 5623 5622 5622 5621 5621 5621 5620 5620 5619 5619 5618 5618 5618 5617 5617 5617 5617 5618 5619 5620 5622 5623 5625 5626 5629 5632 5634 5637
5610 5611 5611 5613 5614 5615 5615 5616 5616 5617 5616 5615 5614 5618 5615 5615 5614 5613 5613 5613 5613 5612 5612 5611 5611 5610 5610 5610 5609 5609 5608 5608 5609 5609 5610 5611 5612 5613 5614 5616 5618 5620 5623 5625
5602 5603 5603 5604 5607 5607 5607 5608 5608 5608 5608 5607 5607 5611 5608 5608 5606 5605 5605 5605 5604 5604 5603 5603 5603 5602 5602 5601 5601 5601 5600 5600 5600 5600 5601 5601 5602 5603 5604 5605 5607 5609 5612 5614
5594 5595 5597 5598 5598 5598 5599 5600 5600 5600 5600 5600 5601 5602 5602 5600 5598 5598 5597 5596 5596 5595 5595 5595 5594 5594 5593 5593 5593 5592 5592 5591 5591 5591 5592 5592 5593 5593 5594 5596 5597 5599 5601 5603
5586 5587 5588 5589 5589 5590 5591 5592 5592 5592 5592 5592 5593 5593 5594 5592 5591 5590 5589 5589 5588 5587 5587 5586 5586 5585 5585 5585 5584 5584 5583 5583 5583 5583 5583 5583 5584 5584 5585 5586 5587 5589 5590 5593
5578 5579 5579 5580 5581 5581 5582 5583 5583 5584 5584 5584 5584 5585 5585 5584 5583 5582 5582 5581 5580 5579 5579 5578 5578 5577 5576 5576 5575 5575 5575 5574 5574 5574 5574 5574 5575 5575 5576 5576 5577 5579 5581 5583
5571 5571 5571 5572 5572 5572 5573 5576 5576 5576 5577 5577 5576 5578 5577 5575 5575 5574 5573 5573 5572 5571 5571 5570 5569 5568 5568 5567 5567 5566 5566 5565 5565 5565 5565 5565 5566 5566 5566 5567 5568 5570 5571 5572
5563 5563 5563 5563 5564 5563 5569 5568 5568 5568 5569 5569 5568 5569 5568 5567 5566 5566 5565 5564 5563 5563 5562 5561 5560 5560 5559 5558 5558 5557 5557 5556 5556 5556 5556 5556 5556 5557 5557 5558 5559 5560 5561 5562
5555 5555 5555 5555 5554 5555 5559 5560 5560 5560 5560 5560 5560 5560 5559 5558 5558 5558 5556 5555 5555 5554 5554 5553 5552 5551 5550 5550 5549 5548 5548 5547 5547 5547 5547 5547 5547 5547 5548 5548 5549 5550 5551 5553
5547 5547 5547 5546 5546 5547 5552 5552 5551 5552 5552 5553 5551 5551 5550 5550 5550 5550 5548 5547 5546 5545 5545 5544 5543 5542 5542 5541 5540 5540 5539 5538 5538 5538 5538 5538 5538 5538 5538 5539 5539 5540 5542 5543
5538 5538 5538 5538 5537 5539 5543 5542 5543 5544 5545 5544 5542 5542 5542 5541 5541 5541 5539 5538 5537 5536 5536 5535 5534 5533 5532 5532 5531 5531 5530 5530 5529 5529 5528 5528 5528 5529 5529 5529 5530 5531 5532 5533
5529 5529 5529 5529 5530 5534 5533 5533 5534 5535 5534 5534 5533 5533 5532 5532 5531 5531 5530 5529 5528 5527 5526 5525 5524 5524 5523 5522 5522 5522 5521 5521 5520 5519 5519 5518 5518 5519 5519 5520 5520 5521 5522 5523
5521 5522 5521 5522 5524 5524 5524 5524 5525 5525 5525 5524 5524 5524 5523 5522 5522 5521 5520 5520 5518 5517 5517 5516 5515 5515 5514 5513 5513 5512 5512 5511 5510 5510 5509 5508 5508 5508 5509 5509 5510 5511 5512 5513
5513 5513 5513 5513 5514 5515 5515 5515 5515 5515 5515 5515 5514 5514 5513 5512 5512 5511 5511 5510 5509 5508 5507 5507 5506 5505 5504 5504 5503 5502 5502 5501 5500 5499 5498 5498 5498 5498 5498 5499 5500 5501 5501 5502
5505 5504 5504 5504 5506 5506 5506 5506 5506 5506 5505 5505 5504 5504 5503 5503 5502 5501 5501 5500 5499 5499 5498 5497 5496 5495 5495 5494 5493 5492 5492 5491 5490 5489 5488 5487 5487 5487 5488 5489 5490 5491 5492 5492
5496 5496 5495 5496 5497 5496 5497 5496 5496 5495 5495 5495 5494 5494 5493 5492 5492 5491 5491 5490 5490 5489 5488 5487 5487 5486 5485 5484 5483 5482 5481 5481 5480 5479 5478 5477 5477 5477 5478 5479 5480 5481 5482 5483